Regional Weather Roundup
Issued by NWS Albany, NY

Home | Current Version | Previous Version | Graphics & Text | Print | Product List | Glossary Off
Versions: 1 2 3 4 5 6 7 8 9 10 11 12 13 14 15 16 17 18 19 20 21 22 23 24 25 26 27 28 29 30 31 32 33 34 35 36 37 38 39 40 41 42 43 44 45 46 47 48 49

000
ASUS41 KALY 241610
RWRALY

NEW YORK STATE HOURLY WEATHER ROUNDUP
NATIONAL WEATHER SERVICE ALBANY NY
1100 AM EST WED DEC 24 2014

NOTE: "FAIR" INDICATES FEW OR NO CLOUDS BELOW 12,000 FEET WITH NO
SIGNIFICANT WEATHER AND/OR NO OBSTRUCTIONS TO VISIBILITY.

NYZ032-033-038>043-046>054-057>066-NYZ062>081-241700-
EAST


CITY           SKY/WX    TMP DP  RH WIND       PRES   REMARKS
ALBANY         LGT RAIN  44  41  89 S8        29.90F FOG
GLENS FALLS    LGT RAIN  38  36  92 CALM      29.91F VSB 3/4
POUGHKEEPSIE   CLOUDY    45  43  93 CALM      29.92F FOG
NEWBURGH       DRIZZLE   45  45 100 SE12      29.92F FOG
MONTGOMERY     LGT RAIN  45  44  97 NE7       29.89F FOG
WHITE PLAINS   RAIN      45  44  97 E12G21    29.90F FOG
ISLIP          RAIN      49  47  93 E10       29.91F VSB 1
NEW YORK CITY  LGT RAIN  44  43  96 NE15      29.90F VSB 1
CENTRAL PARK   RAIN      44  43  96 MISG      29.92F FOG
$$

NYZ005>009-017-018-044>046-055-056-241700-
CENTRAL


CITY           SKY/WX    TMP DP  RH WIND       PRES   REMARKS
FULTON         LGT RAIN  45  42  89 SE8       29.73F
SYRACUSE       LGT RAIN  39  39 100 NE9       29.75F WCI  33
ROME           HVY RAIN  43  43 100 SE6       29.81F FOG
ELMIRA         CLOUDY    50  48  93 VRB3      29.75F
BINGHAMTON     LGT RAIN  43  43 100 SE12      29.77F FOG
MONTICELLO     CLOUDY    43  41  93 E12G21    29.87F
$$

NYZ026>034-041>043-241700-
NORTH


CITY           SKY/WX    TMP DP  RH WIND       PRES   REMARKS
WATERTOWN      CLOUDY    55  46  71 S14G22    29.69F
FORT DRUM      NOT AVBL
MASSENA        LGT RAIN  38  37  97 E6        29.76F FOG     WCI  33
SARANAC LAKE   LGT RAIN  44  42  93 S8        29.77F
PLATTSBURGH    LGT RAIN  40  39  97 SE15      29.86F WCI  32
$$

NYZ001>004-010>016-019>021-241700-
WEST


CITY           SKY/WX    TMP DP  RH WIND       PRES   REMARKS
NIAGARA FALLS  CLOUDY    51  47  86 S7        29.61F
BUFFALO        CLOUDY    53  47  79 S10       29.62F
DUNKIRK        CLOUDY    56  49  77 S10G23    29.60F
JAMESTOWN      CLOUDY    48  45  87 S10G17    29.63F
WELLSVILLE     CLOUDY    48  45  89 SE7       29.69F
ROCHESTER      PTSUNNY   53  46  77 S7        29.67F
PENN YAN       CLOUDY    50  46  86 S8        29.70F
$$

             KEY
       WCI = WIND CHILL INDEX
       VSB = VISIBILITY
       HX  = HEAT INDEX
$$



USA.gov is the U.S. government's official web portal to all federal, state and local government web resources and services.